www.pogodaiklimat.ru

Погода и климат >> Архив погоды >> Мьянма >> Намсам


ПОГОДА в Намсаме

  • Прогноз погоды в Намсаме
  • Монитор погоды в Намсаме

АРХИВ ПОГОДЫ в Намсаме

Время (UTC), дата Ветер
(напр.,м/с)
 
Видим.   Явления Облачность Т
(С)
Тd
(С)
f
(%)
Тe
(С)
Тes
(С)
Комфортность P
(гПа)
Po
(гПа)
Тmin
(С)
Tmax
(С)
R
(мм)
R24
(мм)
S
(см)
00 17.09 штиль 0 6000 м 4/0
[Ci fib]
+16.6 +16.1 97 +16 +17 1011.9 901.3 +14.5
03 17.09 С 2 7000 м 1/1 600 м
[Cu hum]
+24.6 +18.0 67 +29 +40 душно 1010.2 902.6
06 17.09 С 2 7000 м 5/5 600 м
[Cu Sc]
+28.2 +19.4 59 +34 +44 очень
душно
1007.4 901.3
09 17.09 СВ 2 7000 м 5/5 600 м
[Cu Sc]
+29.8 +20.7 58 +37 +40 очень
душно
1004.6 899.4
12 17.09 В 1 7000 м 1/1 600 м
[Sc]
+27.4 +21.6 71 +35 +35 очень
душно
1004.9 898.8 +30.0
00 18.09 штиль 0 900 м туман на расстоянии 4/1 300 м
[Sc Ac trans Ci fib]
+17.5 +16.7 95 +17 +18 1012.7 902.4 +15.5
03 18.09 СВ 1 7000 м {туман} 5/4 300 м
[Cu Sc Ci fib]
+24.2 +19.1 73 +29 +37 душно 1012.3 904.4
06 18.09 СВ 2 7000 м {туман} 4/4 600 м
[Cu Sc]
+29.0 +20.6 61 +36 +47 очень
душно
1008.7 902.8
09 18.09 СВ 2 7000 м 5/4 600 м
[Cu Sc Ci fib]
+30.0 +20.7 57 +37 +41 очень
душно
1005.9 900.6
12 18.09 штиль 0 6000 м {гроза} 6/5 600 м
[Cb cap Ci fib]
+26.7 +22.0 75 +34 +34 очень
душно
1007.2 900.7 +30.4
00 19.09 Ю 1 4000 м дымка 4/3 300 м
[Cu Sc Ci fib]
+18.6 +18.4 99 +21 +21 комфорт 1013.0 903.0 +16.2
03 19.09 З 2 6000 м в посл. час дождь {гроза} 10/8 200 м
[Cb cap Ac As]
+20.6 +20.3 98 +26 +26 душно 1014.6 905.2
06 19.09 З 1 6000 м {гроза, дождь} 8/5 300 м
[Cb cap Ac As]
+26.0 +21.5 76 +33 +39 очень
душно
1010.3 903.2
09 19.09 В 2 6000 м {гроза, морось} 9/5 600 м
[Cb cap Ac trans Cs]
+24.8 +21.9 84 +32 +34 очень
душно
1008.2 900.9
12 19.09 СВ 2 6000 м {гроза, морось} 6/1 600 м
[Sc Ac trans Cs]
+24.3 +20.9 81 +30 +30 очень
душно
1008.7 901.2 +27.1 16
00 20.09 штиль 0 100 м туман ?/? +18.5 +18.5 100 +19 +19 1011.6 901.7 +16.2
03 20.09 СВ 1 5000 м дымка {туман} 6/5 300 м
[Cu Sc Ac trans]
+22.0 +20.5 91 +28 +34 душно 1012.7 904.0
06 20.09 В 2 6000 м {туман} 5/4 300 м
[Cb cap Ci fib]
+27.5 +21.6 70 +35 +46 очень
душно
1008.8 902.4
09 20.09 В 2 7000 м 5/5 600 м
[Cu Sc]
+29.0 +19.6 57 +35 +38 очень
душно
1005.0 899.5
12 20.09 Ю 3 6000 м {гроза, дождь} 8/6 300 м
[Cb cap Ci fib]
+25.0 +22.6 87 +33 +33 очень
душно
1006.4 899.4 +29.3 1
00 21.09 штиль 0 <100 м туман ?/? +19.3 +19.3 100 +21 +21 комфорт 1011.1 901.6 +17.3
03 21.09 СВ 1 6000 м {туман} 6/5 300 м
[Cu Sc Ac trans]
+23.7 +20.4 82 +29 +36 душно 1010.6 902.7
06 21.09 ЮВ 1 6000 м в посл. час морось 9/6 300 м
[Cb cap Ac As]
+25.1 +21.2 79 +32 +36 очень
душно
1007.9 900.7
09 21.09 Ю 2 7000 м 4/4 300 м
[Cb cap]
+28.0 +21.2 67 +35 +40 очень
душно
1003.2 897.5
12 21.09 Ю 2 2000 м гроза с градом 9/6 200 м
[Cb cap Ac As]
+22.0 +21.3 96 +29 +29 очень
душно
1007.7 899.5 +28.3 6
00 22.09 С 1 6000 м 10/8 100 м
[Cb cap As op]
+20.2 +19.9 98 +25 +25 комфорт 1013.5 904.0 +17.0 0.0
03 22.09 В 2 6000 м 8/4 300 м
[Cu Sc Ac trans Cs]
+23.5 +20.4 83 +29 +34 душно 1014.8 906.4
06 22.09 В 3 7000 м 8/6 300 м
[Cb cap Ci fib]
+25.5 +21.0 76 +32 +38 очень
душно
1011.9 904.4
09 22.09 ЮВ 2 7000 м 6/5 600 м
[Cb calv Ac trans]
+25.6 +21.4 78 +33 +36 очень
душно
1009.6 902.4
12 22.09 В 1 7000 м 8/5 600 м
[Cb calv Ac trans]
+24.0 +21.8 88 +31 +31 очень
душно
1009.9 902.2 +27.2
00 23.09 штиль 0 800 м туман местами 8/1 200 м
[St Cs]
+16.0 +15.7 98 +16 +16 1017.4 906.0 +13.8
03 23.09 СВ 2 6000 м {туман} 1/1 600 м
[Sc]
+23.5 +17.7 70 +28 +38 душно 1016.0 907.4
06 23.09 В 3 7000 м {туман} 5/5 600 м
[Cu Sc]
+26.6 +17.6 58 +31 +39 душно 1012.4 905.3
09 23.09 В 2 7000 м 5/5 600 м
[Cu Sc]
+26.7 +17.6 57 +31 +34 душно 1010.2 903.3
12 23.09 В 1 6000 м 4/3 600 м
[Cu Sc Ci fib]
+23.6 +18.6 74 +28 +28 душно 1012.3 904.2 +27.5

 

Местоположение метеостанции Намсам (Мьянма): широта 20.89 долгота 97.73 высота над уровнем моря 981 м.

В архиве по умолчанию представлена погода в Намсаме за последнюю неделю. Архивные данные за месяц целиком и за предыдущие месяцы, начиная с января 2011 года, Вы можете получить, выбрав интересующий диапазон дат из раскрывающегося списка и нажав кнопку "Ввод!".


*Определитесь, кто Вы:
робот инопланетянин человек

Внимание! Время в таблицах - всемирное. Для получения местного времени необходимо прибавить поправку, которая равна 6.5 ч.

Смотрите также архив погоды в соседних городах и на ближайших метеорологических станциях:

Погода в Таунджи (Мьянма) (72 км)
Погода в Лойко (Мьянма) (145 км)
Погода на Дои Эн Ханг (Таиланд) (173 км)
Погода в Мае Хонг Сон (Таиланд) (177 км)
Погода в Мемьо (Мьянма) (183 км)
Погода в Мейтхиле (Мьянма) (198 км)
Погода в Чёнгтуне (Мьянма) (201 км)
Погода в Пьинмане (Мьянма) (204 км)
Погода в Мандалае (Мьянма) (208 км)
Погода в Сикайне (Мьянма) (214 км)

Пояснения к столбцам:

Ветер - указаны скорость ветра в м/с - средняя за 10 мин, порывы в срок и между сроками (в фигурных скобках) и направление, откуда дует ветер: С - северный, СВ - северо-восточный, В - восточный, ЮВ - юго-восточный, Ю - южный, ЮЗ - юго-западный, З - западный, СЗ - северо-западный.
Видимость - горизонтальная дальность видимости в метрах или километрах. При видимости от 1 до 10 км при отсутствии осадков обычно наблюдается дымка, при ухудшении видимости до 1 км и менее - туман. В сухую погоду видимость может ухудшаться дымом, пылью или мглою.
Явления - указаны атмосферные явления, наблюдавшиеся в срок или в последний час перед сроком; фигурными скобками обозначены явления, наблюдавшиеся между сроками (за 1-3 часа до срока); квадратными скобками обозначены град или гололедные отложения с указанием их диаметра в мм.
Облачность - указаны через наклонную черту общая и нижняя облачность в баллах и высота нижней границы облаков в метрах; квадратными скобками обозначены формы облаков: Ci - перистые, Cs - перисто-слоистые, Cc - перисто-кучевые, Ac - высококучевые, As - высокослоистые, Sc - слоисто-кучевые, Ns - слоисто-дождевые, Cu - кучевые, Cb - кучево-дождевые. Подробнее классификацию облаков см. в Атласе облаков (PDF).
T - Температура воздуха - температура, измеренная на высоте 2 м над землей.
Td - Температура точки росы - температура, при понижении до которой содержащийся в воздухе водяной пар достигнет насыщения.
f - Относительная влажность воздуха - влажноcть воздуха, измеренная на высоте 2 м над землей.
Te - Эффективная температура - температура, которую ощущает одетый по сезону человек в тени. Характеристика душности погоды. При расчете учитывается влияние влажности воздуха и скорости ветра на теплоощущения человека.
Tes - Эффективная температура на солнце - температура, которую ощущает человек, с поправкой на солнечный нагрев. Характеристика знойности погоды. Зависит от высоты солнца над горизонтом, облачности и скорости ветра. Ночью, в пасмурную погоду, а также при ветре 12 м/с и более поправка равна нулю.
P - Атмосферное давление - приведенное к уровню моря атмосферное давление.
Po - Атмосферное давление - измеренное на уровне метеостанции атмосферное давление.
Tmin - Минимальная температура - минимум температуры воздуха на высоте 2 м над землей.
Tmax - Максимальная температура - максимум температуры воздуха на высоте 2 м над землей.
R - Количество осадков - Количество выпавших осадков за период времени, мм. При наведении курсора мыши на число - период времени, за который выпало указанное количество осадков.
R24 - Количество осадков - Количество выпавших осадков за 24 часа, мм.
S - Снежный покров - Высота снежного покрова, см. При наведении курсора мыши на число - состояние снежного покрова и степень покрытия местности в баллах.